Showing default

PRATHAM, 41783

Orbit data source: Space-Track

PRATHAM, 41783 is a payload satellite owned by IITB (IN) in SSO that was launched on Mon, 26 Sep 2016 UTC via a PSLV launch vehicle from the Sirharikota (SRI). Payload-class satellites include a variety of spacecraft equipped with specific instruments for various scientific and technological missions. These include communications satellites like Starlink; space stations such as the ISS; scientific satellites like the Hubble; Earth observation satellites from companies like Planet Labs, Umbra, and HawkEye 360; GPS; miniature CubeSats for education and research; and military/defense satellites.

Loading next visibility...
Identifier
41783, 2016-059A
Orbit
SSO
Last TLE update
15 hours ago
Origin
Manufacturer
IITB
Mission
Non-operational Amateur Science
Bus & Motor
PRATHAM, Unknown motor
Mass
10 kg wet, 10 kg dry
Launch date (UTC)
2016-09-26 (9 years ago)
Launch vehicle
PSLV
Launch site
Sirharikota (SRI)
Object type
Payload
Rocket body
Debris
Shape & HBR
Box, 0.466 m
Radar Cross Section
0.251 m², Small (<0.1 m²)

Expand to show TLE details & history

TLE from 15 hours ago
0 PRATHAM
1 41783U 16059A   25128.64478344  .00001178  00000-0  21992-3 0  9995
2 41783  97.8248 138.8085 0033162  67.7883 292.6834 14.66356588460219
Epoch: 2025-05-08T15:28Z
Definitive object data (Epoch: 2025-05-08T15:28:29.289Z)
Latitude
-0.00004°
Longitude
39.97415°
Altitude
666.776 km
Speed
7.528 km/s
True Right ascension
09h 15m 14s
True Declination
0° 00' 00"
Sunlit
Object was in daylight at TLE epoch
Visualization TLE readout
Latitude
-51.63494°
Longitude
50.49346°
Altitude
703.673 km
Speed
7.497 km/s
Apparent Right ascension
05h 42m 17s
Apparent Declination
-63° 13' 15"
Sunlit
Object is in daylight
Visualization observer readout
Local Sidereal Time
14:07:21
Azimuth
215.266° SW
Elevation
-51.011°
Doppler factor
1
Orbital elements
Apogee altitude
693.151 km
Perigee altitude
646.407 km
Semi-major axis
7,047.916 km
Eccentricity
0.0033162
Inclination
97.8248°
RAAN
138.8085°
Arg. of periapsis
67.7883°
True anomaly
292.33223°
Mean anomaly
292.6834°
Eccentric anomaly
292.50787°
Mean motion
3.66819 °/min
BSTAR
0.00021992
Orbital period
98.14 mins
Loading maneuver chart data...
Loading SW <> Apogee altitude chart data...
Loading historical data...
Loading historical data...
Loading historical data...
Loading historical data...
Loading historical data...
Loading historical data...
Loading historical data...

PRATHAM Visibility forecast

Observer location: undefined°, undefined°

Span
Click to sort rows by Start time (UTC) header in descending order
Start Az.
Max El. time (UTC)
Max El. Az.
Max El.
End time (UTC)
End Az.
8 mins2025-05-09 13:19:35.693Z17.982° NNE2025-05-09 13:23:35.693Z73.342° E42.402°2025-05-09 13:27:35.693Z183.266° SSW
7 mins2025-05-10 00:21:35.693Z148.841° SSE2025-05-10 00:24:35.693Z92.001° ESE39.826°2025-05-10 00:28:35.693Z357.798° N
|